KB3KAV Weather Reports


Display with metric or nautical units.
time (UTC)temp
F
wind
direction
speed
MPH
gust
MPH
rain 1hr
in
rain 24hr
in
rain mn
in
humidity
%
barometer
mb
20260504041418 36 85 0.0 0.0 0.00 0.00 0.00 85 1042.0
20260504040412 37 85 0.0 0.0 0.00 0.00 0.00 84 1041.8
20260504035411 37 85 0.0 0.0 0.00 0.00 0.00 83 1042.0
20260504034411 37 85 1.0 1.0 0.00 0.00 0.00 83 1041.9
20260504033406 38 85 0.0 0.0 0.00 0.00 0.00 82 1041.8
20260504032405 38 85 1.0 1.0 0.00 0.00 0.00 81 1041.9
20260504031405 39 85 1.0 1.0 0.00 0.00 0.00 80 1041.9
20260504030404 39 85 0.0 0.0 0.00 0.00 0.00 79 1041.7
20260504025403 39 85 0.0 0.0 0.00 0.00 0.00 78 1041.4
20260504024402 40 85 1.0 1.0 0.00 0.00 0.00 77 1041.8
20260504023402 40 85 0.0 1.0 0.00 0.00 0.00 76 1041.6
20260504022400 40 86 0.0 0.0 0.00 0.00 0.00 76 1041.7
20260504021359 41 86 1.0 1.0 0.00 0.00 0.00 74 1041.7
20260504020359 41 86 0.0 1.0 0.00 0.00 0.00 73 1041.6
20260504015357 42 85 0.0 0.0 0.00 0.00 0.00 71 1041.5
20260504014355 42 85 0.0 0.0 0.00 0.00 0.00 69 1041.4
20260504013351 43 84 1.0 1.0 0.00 0.00 0.00 68 1041.4
20260504012351 44 85 1.0 1.0 0.00 0.00 0.00 67 1041.3
20260504011350 45 82 0.0 1.0 0.00 0.00 0.00 64 1040.9
20260504010348 45 85 1.0 1.0 0.00 0.00 0.00 62 1040.9
20260504005347 46 85 0.0 1.0 0.00 0.00 0.00 62 1040.8
20260504004343 47 85 1.0 1.0 0.00 0.00 0.00 59 1041.0
20260504003342 48 85 0.0 0.0 0.00 0.00 0.00 58 1041.0
20260504002340 49 94 1.0 1.0 0.00 0.00 0.00 56 1040.7
20260504001340 51 97 1.0 1.0 0.00 0.00 0.00 52 1040.6
20260504000340 52 99 1.0 1.0 0.00 0.00 0.00 47 1040.4
20260503235335 54 45 1.0 1.0 0.00 0.00 0.00 43 1040.2
20260503234330 55 61 1.0 1.0 0.00 0.00 0.00 39 1040.2
20260503233329 56 84 2.0 2.0 0.00 0.00 0.00 37 1040.3
20260503232329 56 298 4.0 5.0 0.00 0.00 0.00 36 1040.1
20260503231330 57 309 3.0 5.0 0.00 0.00 0.00 35 1040.1
20260503230328 57 82 3.0 5.0 0.00 0.00 0.00 37 1040.3
20260503225328 57 27 3.0 3.0 0.00 0.00 0.00 35 1040.0
20260503224327 57 41 1.0 1.0 0.00 0.00 0.00 36 1040.0
20260503223322 59 300 4.0 5.0 0.00 0.00 0.00 35 1039.9
20260503222323 59 313 7.0 7.0 0.00 0.00 0.00 33 1040.0
20260503221319 59 305 5.0 7.0 0.00 0.00 0.00 32 1039.9
20260503220317 59 280 3.0 3.0 0.00 0.00 0.00 34 1040.0
20260503215317 58 296 6.0 7.0 0.00 0.00 0.00 33 1040.0
20260503214312 58 281 6.0 7.0 0.00 0.00 0.00 34 1039.8
20260503213307 60 301 5.0 7.0 0.00 0.00 0.00 32 1039.9
20260503212301 59 244 3.0 3.0 0.00 0.00 0.00 33 1039.7
20260503211301 59 280 6.0 7.0 0.00 0.00 0.00 32 1039.9
20260503210259 59 293 7.0 10.0 0.00 0.00 0.00 33 1039.9
20260503205256 58 244 7.0 8.0 0.00 0.00 0.00 33 1039.7
20260503204257 59 227 3.0 5.0 0.00 0.00 0.00 31 1039.5
20260503203251 59 49 3.0 3.0 0.00 0.00 0.00 30 1039.7
20260503202246 58 282 4.0 5.0 0.00 0.00 0.00 31 1039.5
20260503201241 57 278 5.0 6.0 0.00 0.00 0.00 31 1039.7
20260503200239 57 269 10.0 11.0 0.00 0.00 0.00 30 1040.0
20260503195239 58 335 4.0 6.0 0.00 0.00 0.00 30 1040.0
20260503194238 57 287 11.0 14.0 0.00 0.00 0.00 29 1040.1
20260503193237 57 267 12.0 16.0 0.00 0.00 0.00 30 1040.3
20260503192234 57 295 5.0 6.0 0.00 0.00 0.00 33 1040.2
20260503191228 57 132 4.0 5.0 0.00 0.00 0.00 30 1040.5
20260503190227 56 100 1.0 2.0 0.00 0.00 0.00 30 1040.5
20260503185226 57 289 10.0 13.0 0.00 0.00 0.00 29 1040.7
20260503184223 57 295 7.0 9.0 0.00 0.00 0.00 31 1040.9
20260503183223 55 322 5.0 5.0 0.00 0.00 0.00 33 1041.1
20260503182219 56 219 5.0 6.0 0.00 0.00 0.00 31 1041.0
20260503181218 54 275 4.0 5.0 0.00 0.00 0.00 32 1041.0
20260503180213 56 273 13.0 15.0 0.00 0.00 0.00 32 1041.1
20260503175213 54 284 5.0 8.0 0.00 0.00 0.00 32 1041.4
20260503174213 54 295 13.0 14.0 0.00 0.00 0.00 33 1041.5
20260503173209 53 307 5.0 6.0 0.00 0.00 0.00 35 1041.9
20260503172209 54 111 2.0 2.0 0.00 0.00 0.00 34 1041.7
20260503171208 52 14 1.0 2.0 0.00 0.00 0.00 38 1041.9
20260503170208 53 247 7.0 8.0 0.00 0.00 0.00 35 1042.1
20260503160159 50 277 4.0 6.0 0.00 0.00 0.00 36 1042.6
20260503150142 47 89 2.0 3.0 0.00 0.00 0.00 41 1042.8
20260503140135 48 127 6.0 7.0 0.00 0.00 0.00 37 1043.1
20260503131128 45 300 6.0 8.0 0.00 0.00 0.00 52 1043.4
20260503130123 45 288 7.0 9.0 0.00 0.00 0.00 54 1043.4
20260503120112 40 271 3.0 3.0 0.00 0.00 0.00 68 1043.4
20260503081024 40 62 1.0 2.0 0.00 0.00 0.00 69 1042.0
20260503072014 41 90 1.0 1.0 0.00 0.00 0.00 66 1041.7
20260503071014 41 86 1.0 1.0 0.00 0.00 0.00 67 1041.6
20260503054945 42 107 1.0 1.0 0.00 0.00 0.00 66 1041.8
20260503053945 42 43 2.0 2.0 0.00 0.00 0.00 65 1042.0
20260503052944 42 95 1.0 1.0 0.00 0.00 0.00 64 1042.1
20260503051944 42 92 1.0 1.0 0.00 0.00 0.00 65 1042.1
20260503050943 43 85 0.0 0.0 0.00 0.00 0.00 64 1042.2
20260503045943 43 100 1.0 2.0 0.00 0.00 0.00 62 1042.3
20260503044943 43 117 1.0 2.0 0.00 0.00 0.00 62 1042.3
20260503043937 43 102 0.0 0.0 0.00 0.00 0.00 62 1042.2
20260503042935 43 79 0.0 0.0 0.00 0.00 0.00 61 1042.2